Retour au catalogue

FOSSASAT2E26

ActifRadio amateurSSO
NORAD 69899·PAYLOAD·🇺🇸 United States

Lancé Jul 7, 2026 depuis Vandenberg Space Force Base

Loading…

Prochains Passages (prochaines 24 heures)

TLE

FraisSource: Space-Track

Époque: Sep 14, 2026, 12:31 UTC

1 69899U 26156AG  26257.52200033  .00001459  00000-0  15199-3 0  9995
2 69899  97.7426 156.7430 0003254 263.2918  96.7930 14.91302114 10314

Suivez FOSSASAT2E26 en temps réel avec AllMySat

Download on the App Store